Weather History for Rensselaer, IN

Change the Weather History Date:

Saturday, April 5, 2014

  Actual Average (KVPZ) Record (KVPZ)
Temperature  
Mean Temperature 41 °F 45 °F  
Max Temperature 50 °F 55 °F 75 °F (2005)
Min Temperature 32 °F 35 °F 24 °F (2007)
Degree Days  
Heating Degree Days 24 20  
Month to date heating degree days 103  
Since 1 July heating degree days 5680  
Cooling Degree Days 0 0  
Month to date cooling degree days 0  
Year to date cooling degree days 0  
Moisture  
Dew Point 28 °F    
Average Humidity 66    
Maximum Humidity 93    
Minimum Humidity 32    
Precipitation  
Precipitation 0.00 in 0.09 in 1.68 in (2007)
Month to date precipitation 0.46  
Year to date precipitation 6.11  
Sea Level Pressure  
Sea Level Pressure 30.15 in    
Wind  
Wind Speed 7 mph (NW)    
Max Wind Speed 15 mph    
Max Gust Speed 26 mph    
Visibility 10 miles    
Events      
T = Trace of Precipitation, MM = Missing Value Source: NWS Daily Summary

Daily Weather History Graph

Daily Weather History Graph

Search for Another Location

Airport:

Trip Planner

Search our weather history database for the weather conditions in past years. The results will help you decide how hot, cold, wet, or windy it might be!

Date:

Astronomy

Apr. 05, 2014 Rise Set
Actual Time 6:25 AM CDT 7:17 PM CDT
Civil Twilight 5:57 AM CDT 7:45 PM CDT
Nautical Twilight 5:24 AM CDT 8:19 PM CDT
Astronomical Twilight 4:50 AM CDT 8:53 PM CDT
Moon 10:31 AM CDT (4/5) 12:29 AM CDT (4/5)
Length of Visible Light 13h 48m
Length of Day
12h 52m
Waxing Crescent, 34% of the Moon is Illuminated
Apr 5
Waxing Crescent
Apr 7
First Quarter
Apr 15
Full
Apr 22
Last Quarter
Apr 29
New

Hourly Weather History & Observations

Time (CDT) Temp. Windchill Dew Point Humidity Pressure Visibility Wind Dir Wind Speed Gust Speed Precip Events Conditions
12:15 AM 35.6 °F 26.2 °F 32.0 °F 87% 30.01 in 10.0 mi West 15.0 mph 18.4 mph N/A   Overcast
12:35 AM 35.6 °F 27.5 °F 30.2 °F 81% 30.02 in 10.0 mi WNW 11.5 mph 26.5 mph N/A   Overcast
12:55 AM 35.6 °F 27.5 °F 28.4 °F 75% 30.03 in 10.0 mi WNW 11.5 mph 20.7 mph N/A   Overcast
1:15 AM 35.6 °F 26.2 °F 28.4 °F 75% 30.04 in 10.0 mi WNW 15.0 mph 20.7 mph N/A   Scattered Clouds
1:35 AM 33.8 °F 25.3 °F 28.4 °F 81% 30.05 in 10.0 mi WNW 11.5 mph 17.3 mph N/A   Clear
1:55 AM 33.8 °F 27.7 °F 28.4 °F 81% 30.06 in 10.0 mi WNW 6.9 mph - N/A   Clear
2:15 AM 33.8 °F 27.7 °F 28.4 °F 81% 30.06 in 10.0 mi WNW 6.9 mph - N/A   Clear
2:35 AM 33.8 °F 29.6 °F 28.4 °F 81% 30.07 in 10.0 mi WNW 4.6 mph - N/A   Clear
2:55 AM 32.0 °F 28.7 °F 28.4 °F 87% 30.08 in 10.0 mi West 3.5 mph - N/A   Clear
3:15 AM 33.8 °F 29.6 °F 28.4 °F 81% 30.08 in 10.0 mi WNW 4.6 mph - N/A   Mostly Cloudy
3:35 AM 33.8 °F 30.8 °F 30.2 °F 87% 30.09 in 10.0 mi West 3.5 mph - N/A   Overcast
3:55 AM 33.8 °F - 30.2 °F 87% 30.09 in 10.0 mi Calm Calm - N/A   Overcast
4:15 AM 32.0 °F 28.7 °F 30.2 °F 93% 30.09 in 10.0 mi WSW 3.5 mph - N/A   Overcast
4:35 AM 33.8 °F 30.8 °F 30.2 °F 87% 30.10 in 10.0 mi WSW 3.5 mph - N/A   Overcast
4:55 AM 32.0 °F 28.7 °F 30.2 °F 93% 30.10 in 10.0 mi West 3.5 mph - N/A   Scattered Clouds
5:15 AM 32.0 °F - 30.2 °F 93% 30.11 in 10.0 mi Calm Calm - N/A   Overcast
5:35 AM 33.8 °F 29.6 °F 32.0 °F 93% 30.11 in 10.0 mi West 4.6 mph - N/A   Overcast
5:55 AM 33.8 °F 29.6 °F 32.0 °F 93% 30.12 in 10.0 mi West 4.6 mph - N/A   Overcast
6:15 AM 33.8 °F 29.6 °F 32.0 °F 93% 30.13 in 10.0 mi West 4.6 mph - N/A   Overcast
6:35 AM 33.8 °F 29.6 °F 32.0 °F 93% 30.14 in 10.0 mi West 4.6 mph - N/A   Overcast
6:55 AM 33.8 °F 30.8 °F 32.0 °F 93% 30.15 in 10.0 mi West 3.5 mph - N/A   Overcast
7:15 AM 33.8 °F 29.6 °F 32.0 °F 93% 30.16 in 10.0 mi WSW 4.6 mph - N/A   Overcast
7:35 AM 33.8 °F 29.6 °F 32.0 °F 93% 30.16 in 10.0 mi West 4.6 mph - N/A   Overcast
7:55 AM 35.6 °F 29.2 °F 32.0 °F 87% 30.17 in 10.0 mi WNW 8.1 mph - N/A   Mostly Cloudy
8:15 AM 35.6 °F 29.9 °F 32.0 °F 87% 30.18 in 10.0 mi WNW 6.9 mph - N/A   Clear
8:35 AM 37.4 °F 31.4 °F 30.2 °F 75% 30.18 in 10.0 mi NW 8.1 mph - N/A   Clear
8:55 AM 37.4 °F 31.4 °F 30.2 °F 75% 30.19 in 10.0 mi NW 8.1 mph - N/A   Clear
9:15 AM 37.4 °F 30.8 °F 30.2 °F 75% 30.19 in 10.0 mi NNW 9.2 mph - N/A   Clear
9:35 AM 39.2 °F 32.5 °F 30.2 °F 70% 30.19 in 10.0 mi NW 10.4 mph - N/A   Scattered Clouds
9:55 AM 39.2 °F 34.2 °F 30.2 °F 70% 30.20 in 10.0 mi NW 6.9 mph - N/A   Scattered Clouds
10:15 AM 41.0 °F 37.1 °F 30.2 °F 65% 30.21 in 10.0 mi WNW 5.8 mph - N/A   Clear
10:35 AM 41.0 °F 38.0 °F 30.2 °F 65% 30.21 in 10.0 mi WNW 4.6 mph - N/A   Clear
10:55 AM 41.0 °F 38.0 °F 30.2 °F 65% 30.22 in 10.0 mi WNW 4.6 mph - N/A   Clear
11:15 AM 42.8 °F 39.3 °F 30.2 °F 61% 30.21 in 10.0 mi NW 5.8 mph - N/A   Scattered Clouds
11:35 AM 42.8 °F 40.1 °F 28.4 °F 57% 30.21 in 10.0 mi WNW 4.6 mph - N/A   Scattered Clouds
11:55 AM 44.6 °F 43.1 °F 30.2 °F 57% 30.21 in 10.0 mi North 3.5 mph - N/A   Scattered Clouds
12:15 PM 44.6 °F 43.1 °F 28.4 °F 53% 30.21 in 10.0 mi NNW 3.5 mph - N/A   Scattered Clouds
12:35 PM 44.6 °F 40.2 °F 28.4 °F 53% 30.21 in 10.0 mi NW 8.1 mph - N/A   Scattered Clouds
12:55 PM 44.6 °F - 26.6 °F 49% 30.20 in 10.0 mi Calm Calm - N/A   Clear
1:15 PM 44.6 °F 42.2 °F 26.6 °F 49% 30.20 in 10.0 mi WSW 4.6 mph - N/A   Clear
1:35 PM 46.4 °F 44.3 °F 26.6 °F 46% 30.20 in 10.0 mi West 4.6 mph - N/A   Clear
1:55 PM 46.4 °F 42.4 °F 26.6 °F 46% 30.19 in 10.0 mi North 8.1 mph - N/A   Clear
2:15 PM 46.4 °F 45.2 °F 26.6 °F 46% 30.19 in 10.0 mi NNW 3.5 mph - N/A   Clear
2:35 PM 48.2 °F - 28.4 °F 46% 30.19 in 10.0 mi NW 5.8 mph - N/A   Clear
2:55 PM 48.2 °F - 26.6 °F 43% 30.18 in 10.0 mi Calm Calm - N/A   Clear
3:15 PM 48.2 °F - 26.6 °F 43% 30.18 in 10.0 mi North 5.8 mph - N/A   Clear
3:35 PM 48.2 °F - 24.8 °F 40% 30.17 in 10.0 mi ENE 3.5 mph - N/A   Clear
3:55 PM 50.0 °F - 26.6 °F 40% 30.17 in 10.0 mi North 4.6 mph - N/A   Clear
4:15 PM 48.2 °F - 24.8 °F 40% 30.16 in 10.0 mi Calm Calm - N/A   Clear
4:35 PM 50.0 °F - 24.8 °F 37% 30.16 in 10.0 mi Calm Calm - N/A   Clear
4:55 PM 50.0 °F - 23.0 °F 35% 30.16 in 10.0 mi Calm Calm - N/A   Clear
5:15 PM 50.0 °F - 21.2 °F 32% 30.16 in 10.0 mi Calm Calm - N/A   Clear
5:35 PM 50.0 °F - 23.0 °F 35% 30.16 in 10.0 mi Calm Calm - N/A   Clear
5:55 PM 50.0 °F - 23.0 °F 35% 30.16 in 10.0 mi Calm Calm - N/A   Clear
6:15 PM 48.2 °F - 21.2 °F 34% 30.16 in 10.0 mi Calm Calm - N/A   Clear
6:35 PM 48.2 °F - 21.2 °F 34% 30.16 in 10.0 mi Calm Calm - N/A   Clear
6:55 PM 46.4 °F - 21.2 °F 37% 30.16 in 10.0 mi Calm Calm - N/A   Clear
7:15 PM 44.6 °F 43.1 °F 26.6 °F 49% 30.17 in 10.0 mi ENE 3.5 mph - N/A   Clear
7:35 PM 42.8 °F 39.3 °F 24.8 °F 49% 30.16 in 10.0 mi ENE 5.8 mph - N/A   Clear
7:55 PM 41.0 °F 36.4 °F 28.4 °F 61% 30.17 in 10.0 mi ENE 6.9 mph - N/A   Clear
8:15 PM 37.4 °F 32.8 °F 28.4 °F 70% 30.17 in 10.0 mi NE 5.8 mph - N/A   Clear
8:35 PM 37.4 °F 32.1 °F 28.4 °F 70% 30.18 in 10.0 mi ENE 6.9 mph - N/A   Clear
8:55 PM 35.6 °F 30.7 °F 28.4 °F 75% 30.18 in 10.0 mi ENE 5.8 mph - N/A   Clear
9:15 PM 35.6 °F 30.7 °F 28.4 °F 75% 30.18 in 10.0 mi ENE 5.8 mph - N/A   Clear
9:35 PM 35.6 °F 30.7 °F 26.6 °F 70% 30.19 in 10.0 mi East 5.8 mph - N/A   Clear
9:55 PM 35.6 °F 29.9 °F 26.6 °F 70% 30.19 in 10.0 mi ENE 6.9 mph - N/A   Clear
10:15 PM 35.6 °F 31.7 °F 26.6 °F 70% 30.19 in 10.0 mi ENE 4.6 mph - N/A   Clear
10:35 PM 33.8 °F 30.8 °F 26.6 °F 75% 30.19 in 10.0 mi East 3.5 mph - N/A   Clear
10:55 PM 35.6 °F 32.8 °F 23.0 °F 60% 30.19 in 10.0 mi East 3.5 mph - N/A   Clear
11:15 PM 35.6 °F 31.7 °F 23.0 °F 60% 30.19 in 10.0 mi East 4.6 mph - N/A   Clear
11:35 PM 35.6 °F 32.8 °F 23.0 °F 60% 30.19 in 10.0 mi East 3.5 mph - N/A   Clear
11:55 PM 35.6 °F 32.8 °F 23.0 °F 60% 30.18 in 10.0 mi East 3.5 mph - N/A   Clear